Regional Weather Roundup
Issued by NWS New Orleans/Baton Rouge, LA

Home | Current Version | Previous Version | Graphics & Text | Print | Product List | Glossary On
Versions: 1 2 3 4 5 6 7 8 9 10 11 12 13 14 15 16 17 18 19 20 21 22 23 24 25 26 27 28 29 30 31 32 33 34 35 36 37 38 39 40 41 42 43 44 45 46 47 48 49 50
867
ASUS44 KLIX 231810
RWRLIX
NEW ORLEANS REGIONAL WEATHER ROUNDUP
NATIONAL WEATHER SERVICE NEW ORLEANS LA
100 PM CDT TUE SEP 23 2014

NOTE: "FAIR" INDICATES FEW OR NO CLOUDS BELOW 12,000 FEET WITH NO
      SIGNIFICANT WEATHER AND/OR OBSTRUCTIONS TO VISIBILITY.
      SKY/WX - SKY CONDITION AND SIGNIFICANT WEATHER.
      TMP - AIR TEMPERATURE.     DP    - DEWPOINT TEMPERATURE.
      RH  - RELATIVE HUMIDITY.   PRES  - PRESSURE.
      HI  - HEAT INDEX.          WCI   - WIND CHILL INDEX.

*  THESE STATIONS ARE NOT NWS OR FAA STATIONS AND ARE NOT UNDER
   NWS QUALITY CONTROL.

LAZ038-040-048-061>063-065>067-069-231900-
SOUTHEAST LOUISIANA

CITY           SKY/WX    TMP DP  RH WIND       PRES   REMARKS
N.O. AUDUBON   NOT AVBL
N.O. INTL ARPT MOSUNNY   82  53  36 E12       30.10S
6HR MIN TEMP:  70; 6HR MAX TEMP:  83;

N.O. LAKEFRONT SUNNY     82  55  39 NE12      30.10F
6HR MIN TEMP:  70; 6HR MAX TEMP:  82;

N.O. DOWNTOWN*   N/A     81  52  36 NE12      30.10S
6HR MIN TEMP:  68; 6HR MAX TEMP:  81;

SLIDELL        SUNNY     82  55  39 N8        30.09F
6HR MIN TEMP:  56; 6HR MAX TEMP:  82;

BATON ROUGE    SUNNY     82  56  40 E10       30.11F
6HR MIN TEMP:  59; 6HR MAX TEMP:  82;

BOOTHVILLE     SUNNY     82  64  54 NE9       30.07F
6HR MIN TEMP:  78; 6HR MAX TEMP:  82;

BELLE CHASSE   MOSUNNY   83  52  34 NE14      30.09S
6HR MIN TEMP:  66; 6HR MAX TEMP:  83;

BOGALUSA*        N/A     83  51  33 NE9       30.13S
6HR MIN TEMP:  57; 6HR MAX TEMP:  83;

GALLIANO*      NOT AVBL
NEW ROADS*       N/A     80  55  42 N7        30.12F
6HR MIN TEMP:  62; 6HR MAX TEMP:  80;

GONZALES*        N/A     81  55  40 NE7       30.10F
6HR MIN TEMP:  60; 6HR MAX TEMP:  81;

HAMMOND*       SUNNY     82  50  32 E5        30.12F
HOUMA*         SUNNY     84  10   6 NE7       30.08F
PORT FOURCHON* CLEAR     81  64  57 NE17G23   30.10F

$$

MSZ070-080>082-231900-
SOUTHERN MISSISSIPPI

CITY           SKY/WX    TMP DP  RH WIND       PRES   REMARKS
MCCOMB         SUNNY     79  52  38 VRB7      30.13F
6HR MIN TEMP:  58; 6HR MAX TEMP:  80;

GULFPORT       SUNNY     82  54  37 N8        30.08F
6HR MIN TEMP:  60; 6HR MAX TEMP:  82;

BILOXI         SUNNY     83  55  37 E7        30.09S
6HR MIN TEMP:  62; 6HR MAX TEMP:  83;

PASCAGOULA     SUNNY     83  58  42 N10       30.08F
6HR MIN TEMP:  55; 6HR MAX TEMP:  83;

STENNIS ARPT*  SUNNY     82  46  28 NE8       30.09F

$$

COASTAL OBSERVATIONS
LAKE AND NEARSHORE STATIONS

STATION/POSITION TIME  TEMP    WIND        PRES    WAVE
                       AIR SEA DIR/SP/G            HT/PER
                 (UTC) (F)     (DEG/KT/KT) (MB)    (FT/S)
PASCAGOULA       1800   83      80/ 10/ 14 1018.0
WAVELAND YACHT   1800   78      30/  6/  9 1018.4
GRAND ISLE       1800   79 81   50/ 11/ 15 1018.9
SOUTHWEST PASS   1800   87 88   60/ 17/ 19 1018.2
NEW CANAL        1800   77 79   50/ 11/ 13 1019.6
SHELL BEACH      1800   76 76   30/ 10/ 11 1018.9

OFFSHORE STATIONS

STATION/POSITION TIME  TEMP    WIND        PRES    WAVE
                       AIR SEA DIR/SP/G            HT/PER
                 (UTC) (F)     (DEG/KT/KT) (MB)    (FT/S)
64 S DAUPHIN ISL 1707   79 84   70/ 14/ 16 1018.0    4/ 6

$$




USA.gov is the U.S. government's official web portal to all federal, state and local government web resources and services.